Wind_Speed
2 2 2 1 2 2 2 1 2 2 2 3 3 3 4 4 4 4 5 4 4 4 4 5 5 5 5 6 6 5 5 5 5 5 5 5 5 5 6 6 6 6 7
2 2 1 1 2 2 2 1 2 3 3 3 4 4 5 5 5 5 6 6 5 5 5 5 6 6 6 6 7 7 6 6 5 5 5 5 5 6 7 7 8 8 8
2 2 1 1 2 2 2 2 3 3 4 4 4 5 6 6 6 7 7 7 6 6 6 7 7 7 7 7 7 7 7 7 6 6 6 6 6 7 7 7 8 9 9
1 2 2 2 2 3 3 3 4 4 4 4 5 5 6 6 7 7 7 7 7 7 7 8 8 8 9 9 8 8 8 7 8 7 7 7 7 8 8 8 9 9 10
2 2 2 3 3 4 4 4 4 4 5 5 6 5 6 6 6 7 7 7 8 8 8 8 8 9 9 9 10 10 9 9 9 9 9 9 10 10 10 10 11 11 11
3 3 3 4 4 4 5 5 5 5 6 6 6 6 6 6 6 6 7 7 8 8 9 9 9 9 10 10 10 11 11 11 11 10 10 11 11 11 11 11 11 12 13
4 4 4 5 5 6 6 7 7 7 7 7 7 7 7 7 7 7 7 7 8 8 9 10 11 10 11 11 11 11 12 12 12 12 12 12 12 13 12 13 12 12 13
5 5 6 6 6 7 7 7 7 8 8 8 8 8 8 8 8 8 9 9 8 8 9 10 11 11 10 11 13 13 14 13 13 13 14 14 14 14 14 14 14 14 15
6 6 7 7 7 7 7 8 8 8 8 9 9 9 9 10 10 10 10 10 10 10 11 12 12 12 12 13 13 14 15 15 14 14 15 15 15 16 16 17 17 17 17
7 8 8 8 8 8 8 9 9 9 10 9 9 10 10 11 11 11 12 12 13 13 13 13 13 13 14 14 14 15 16 16 16 16 16 16 16 17 17 19 19 18 18
8 9 9 9 9 9 9 9 10 10 10 10 10 10 11 11 11 12 12 13 13 14 14 14 15 15 15 15 15 15 16 16 17 17 17 17 17 18 18 18 19 19 19
9 9 9 10 10 10 10 10 10 10 11 11 10 11 11 12 13 13 13 14 14 15 15 15 15 16 16 15 15 15 15 16 17 17 18 18 18 18 19 19 19 20 19
10 10 10 11 11 12 12 11 12 12 12 12 12 13 13 13 14 14 14 14 15 15 16 16 16 16 16 17 17 17 17 17 18 18 18 19 19 20 20 20 20 20 20
11 10 11 12 12 12 13 13 12 13 13 13 14 14 15 15 15 15 15 15 15 16 16 17 17 17 17 18 18 18 18 18 18 18 19 19 20 20 20 21 21 21 21
14 13 13 13 13 14 14 14 13 13 14 15 16 16 16 16 17 17 17 17 17 17 18 18 19 19 19 19 20 20 20 20 19 19 20 20 20 20 21 22 23 23 22
15 15 15 14 14 14 14 14 15 15 16 16 17 18 18 18 19 19 19 19 19 19 19 20 20 21 21 21 21 21 21 20 20 20 20 20 21 21 22 22 22 23 22
16 16 16 16 16 16 16 17 17 17 17 18 19 19 20 20 20 20 21 21 21 21 22 22 22 23 22 22 22 22 22 22 22 22 21 21 22 22 23 23 23 23 23
18 18 17 17 17 17 17 18 18 18 18 19 19 20 21 21 21 22 22 23 23 24 24 24 24 24 23 23 23 23 23 23 23 23 23 23 23 23 23 23 24 24 24
19 19 18 18 19 19 19 19 20 20 21 21 21 22 22 23 23 24 25 25 26 25 25 25 24 23 23 23 24 24 24 24 24 24 25 25 24 24 24 24 24 25 25
19 19 19 20 20 20 21 21 22 23 23 23 23 23 24 24 24 25 26 26 27 27 26 26 25 25 25 25 26 25 25 25 25 26 26 26 25 25 25 25 25 25 25
21 21 21 22 22 22 23 23 24 24 24 25 25 25 25 25 26 27 27 27 28 28 28 27 27 26 26 26 27 27 26 26 26 26 27 27 26 27 27 26 26 26 26
23 23 23 24 24 24 25 25 26 26 26 27 27 26 26 26 27 28 29 30 30 29 28 27 28 27 27 27 28 28 28 28 28 28 28 27 27 27 27 27 27 27 27
24 25 25 26 26 26 26 26 27 27 27 28 28 28 28 28 29 29 30 30 29 28 29 29 29 28 29 29 29 29 29 29 29 29 28 28 29 29 29 28 28 28 28
27 27 27 27 27 28 28 28 29 29 29 28 28 29 29 30 30 30 30 29 29 29 30 30 30 30 30 30 31 30 29 30 30 30 29 29 29 30 30 30 29 29 29
29 28 28 28 29 29 29 30 30 30 30 30 29 29 30 30 30 30 30 30 30 30 31 30 30 31 31 31 31 31 31 31 30 30 30 29 29 30 29 30 29 29 29
30 30 30 30 30 30 30 30 30 31 31 31 31 30 30 31 30 30 30 30 31 31 32 32 32 31 31 31 30 30 31 31 30 30 30 30 30 30 29 29 29 29 29
Wind_Direction
50 30 29 21 14 17 349 305 295 295 292 285 268 262 262 256 263 275 281 277 278 279 274 271 280 281 280 278 273 274 281 288 282 279 273 269 269 269 272 272 272 273 270
37 20 7 9 18 6 339 310 286 284 282 281 279 275 270 266 273 276 281 279 270 273 272 274 281 278 276 281 276 271 271 276 281 280 275 274 274 276 275 271 270 271 273
27 357 338 341 343 336 323 310 296 289 286 283 287 286 277 275 276 279 279 279 275 274 276 279 281 279 276 278 283 272 268 268 272 274 273 273 274 274 281 279 274 275 275
2 338 337 332 327 325 323 318 307 297 290 292 293 293 289 281 278 281 280 274 275 276 277 282 285 282 280 278 279 276 268 267 269 272 274 275 276 273 277 281 282 281 278
323 322 330 327 319 316 315 317 312 302 294 293 294 294 293 288 284 280 279 275 276 278 277 279 285 287 284 281 278 274 271 268 268 269 271 272 274 274 275 277 280 280 279
319 311 322 321 314 312 308 302 299 297 295 295 294 293 290 293 289 282 279 280 280 278 277 280 282 285 285 283 282 277 274 274 274 271 270 271 273 274 275 275 277 278 278
315 312 309 309 307 304 301 296 294 292 292 293 292 291 287 283 283 281 278 278 282 281 282 282 282 282 282 279 281 279 274 275 277 276 274 273 273 274 274 274 275 276 277
314 310 309 304 302 304 297 293 294 292 291 292 291 290 286 281 281 280 275 274 278 281 282 285 282 282 281 277 278 278 274 275 275 274 274 275 277 278 276 275 274 274 274
311 306 304 303 301 301 297 293 294 293 292 292 291 288 284 283 282 282 278 275 277 278 281 284 284 281 281 281 281 277 274 275 275 272 272 274 276 277 275 274 274 273 273
304 301 299 297 299 298 295 293 292 292 292 292 292 289 284 284 283 282 281 276 276 276 278 284 285 283 284 284 283 283 278 274 274 271 270 270 275 276 276 275 273 273 272
299 297 295 294 297 296 296 295 293 293 291 289 287 286 283 285 285 283 281 281 281 279 280 283 285 286 283 284 284 284 284 282 278 276 275 275 276 276 277 279 278 274 273
296 294 293 293 294 293 294 293 291 293 291 286 284 283 281 284 286 283 281 283 283 281 282 283 285 287 285 285 286 286 288 287 283 280 279 280 277 275 274 276 279 278 275
292 293 290 291 290 291 292 292 289 287 289 289 287 284 281 281 284 284 282 283 284 282 281 281 283 285 287 288 289 290 289 289 285 281 280 281 279 277 275 275 276 277 277
289 294 293 291 289 290 288 288 290 287 287 286 287 285 283 280 281 283 282 283 283 284 284 284 283 283 286 288 289 290 289 289 286 283 281 281 281 280 281 279 276 276 277
286 292 295 295 289 288 291 289 291 288 287 287 285 285 285 282 282 283 280 281 282 283 284 284 285 284 284 285 286 286 286 286 286 284 282 282 280 281 282 281 277 273 274
289 291 291 296 294 289 290 290 291 289 287 286 285 284 283 282 285 285 282 280 281 282 285 285 284 285 283 282 283 283 283 280 282 283 283 283 281 281 281 281 279 275 273
288 288 290 290 291 289 287 289 289 289 289 287 286 287 285 282 284 285 284 283 283 283 284 284 284 283 283 282 280 280 280 278 278 280 281 282 282 281 281 280 280 277 274
286 286 287 289 289 289 289 288 288 289 290 289 288 289 287 284 284 285 286 285 285 286 285 285 285 283 284 283 281 278 279 278 279 281 282 282 283 282 282 282 281 279 276
285 286 286 287 287 289 289 288 288 288 289 289 288 289 288 287 284 286 286 287 288 288 287 286 285 285 283 283 283 279 279 279 280 281 282 282 282 282 284 285 283 280 279
281 282 283 285 286 287 287 286 286 287 287 287 287 287 288 289 288 286 286 286 288 287 287 286 285 284 283 283 281 280 279 278 278 279 281 281 280 282 283 284 284 283 281
280 280 281 283 284 286 287 287 286 286 286 287 287 286 287 288 289 287 287 287 287 286 287 286 286 284 283 282 281 279 280 279 279 279 280 279 279 281 281 282 284 283 281
284 283 282 282 283 284 285 285 284 284 286 287 286 286 287 288 288 288 288 288 287 286 287 287 286 285 284 283 282 281 281 279 279 279 279 279 280 281 282 281 282 281 281
283 286 285 283 282 283 283 283 284 284 285 286 287 287 286 286 287 288 289 289 289 286 286 286 286 285 284 284 285 284 282 281 280 279 278 278 279 280 280 280 279 279 279
282 285 284 282 281 281 282 283 283 283 284 286 287 288 288 287 288 288 289 288 289 288 287 286 286 285 285 286 286 284 284 283 282 280 278 279 279 281 280 278 278 277 278
283 285 283 282 282 282 282 283 283 283 284 285 287 289 289 290 289 289 288 288 289 289 289 287 286 287 286 286 286 284 283 282 281 280 279 280 280 280 279 278 276 276 276
283 283 283 282 281 281 282 283 284 283 283 285 288 289 290 290 290 289 289 289 289 289 288 286 287 287 287 286 285 284 283 281 280 279 279 279 279 279 278 276 275 274 274
Height
5892 5891 5891 5891 5891 5891 5891 5890 5891 5891 5891 5891 5891 5891 5891 5892 5892 5892 5892 5892 5892 5892 5892 5892 5891 5891 5891 5891 5891 5891 5890 5890 5890 5890 5890 5890 5890 5890 5890 5890 5890 5890 5890
5891 5891 5891 5891 5891 5891 5891 5890 5890 5890 5890 5890 5890 5890 5890 5890 5891 5891 5891 5891 5891 5891 5891 5890 5890 5890 5890 5890 5889 5889 5889 5889 5889 5889 5889 5889 5889 5889 5889 5889 5889 5889 5889
5891 5891 5891 5891 5890 5890 5890 5890 5890 5889 5889 5889 5889 5889 5889 5889 5889 5889 5889 5889 5889 5889 5889 5889 5889 5889 5888 5888 5888 5887 5887 5887 5887 5887 5887 5887 5887 5887 5887 5887 5887 5887 5887
5891 5891 5890 5890 5890 5889 5889 5889 5889 5889 5888 5888 5888 5888 5888 5888 5888 5887 5887 5888 5888 5888 5888 5888 5887 5887 5887 5886 5886 5886 5885 5885 5885 5885 5885 5885 5885 5885 5885 5885 5885 5885 5885
5890 5890 5890 5889 5889 5889 5888 5888 5888 5887 5887 5887 5886 5886 5886 5886 5886 5886 5886 5886 5886 5886 5886 5885 5885 5885 5885 5884 5884 5884 5883 5883 5883 5883 5883 5883 5883 5883 5883 5882 5883 5882 5882
5890 5890 5889 5889 5888 5888 5887 5887 5886 5886 5885 5885 5885 5885 5884 5884 5884 5883 5883 5884 5884 5884 5884 5883 5883 5883 5883 5882 5882 5882 5882 5881 5881 5881 5881 5881 5880 5880 5880 5880 5879 5879 5879
5889 5889 5888 5888 5887 5887 5886 5886 5885 5884 5884 5883 5883 5883 5883 5882 5882 5881 5881 5881 5881 5881 5881 5881 5881 5880 5880 5880 5880 5879 5879 5878 5878 5878 5878 5878 5877 5877 5877 5876 5876 5876 5876
5888 5888 5887 5886 5886 5885 5885 5884 5883 5883 5882 5881 5881 5880 5881 5881 5880 5879 5879 5879 5879 5879 5879 5878 5878 5878 5877 5877 5877 5876 5876 5875 5875 5875 5875 5875 5874 5874 5874 5873 5873 5872 5872
5887 5886 5885 5885 5884 5883 5882 5882 5881 5881 5880 5879 5878 5878 5878 5878 5877 5877 5877 5876 5876 5876 5876 5875 5875 5874 5874 5873 5873 5872 5872 5872 5871 5871 5871 5870 5870 5870 5870 5869 5869 5868 5868
5885 5884 5883 5883 5882 5881 5880 5880 5879 5878 5878 5877 5876 5876 5875 5875 5874 5874 5874 5874 5873 5873 5873 5872 5872 5871 5870 5870 5869 5868 5868 5868 5867 5867 5866 5866 5866 5865 5865 5865 5865 5864 5863
5883 5882 5881 5880 5879 5879 5878 5877 5877 5876 5875 5874 5874 5873 5873 5872 5871 5871 5871 5870 5870 5869 5869 5869 5868 5868 5867 5866 5865 5864 5864 5863 5863 5863 5862 5861 5861 5861 5860 5860 5860 5859 5858
5880 5879 5879 5878 5877 5876 5875 5874 5874 5873 5872 5871 5871 5870 5869 5869 5868 5868 5867 5867 5866 5866 5865 5865 5865 5864 5863 5862 5861 5860 5859 5859 5858 5858 5857 5856 5856 5856 5855 5855 5854 5854 5853
5877 5877 5876 5875 5874 5873 5872 5871 5870 5869 5869 5868 5867 5866 5866 5865 5865 5864 5864 5863 5862 5862 5862 5861 5860 5860 5859 5858 5857 5856 5855 5854 5853 5853 5852 5851 5851 5850 5850 5849 5849 5849 5848
5874 5873 5873 5872 5870 5870 5869 5868 5867 5866 5865 5864 5863 5863 5862 5861 5861 5860 5860 5859 5859 5858 5857 5857 5856 5855 5854 5853 5852 5852 5851 5849 5848 5847 5847 5846 5846 5845 5844 5843 5843 5843 5842
5870 5870 5869 5868 5867 5866 5865 5864 5863 5862 5861 5860 5859 5858 5858 5857 5856 5856 5855 5855 5855 5854 5853 5852 5851 5850 5849 5848 5847 5846 5845 5845 5844 5843 5842 5841 5840 5839 5839 5838 5837 5837 5836
5867 5866 5865 5864 5863 5862 5861 5860 5859 5858 5857 5856 5855 5854 5853 5852 5851 5851 5850 5849 5849 5849 5848 5847 5846 5844 5843 5843 5841 5840 5840 5839 5838 5837 5836 5835 5834 5833 5833 5832 5831 5830 5830
5863 5862 5861 5860 5859 5858 5857 5856 5855 5854 5853 5852 5851 5849 5849 5848 5847 5846 5845 5844 5843 5843 5842 5841 5840 5838 5837 5836 5835 5835 5834 5833 5832 5831 5830 5830 5829 5828 5827 5825 5824 5824 5824
5858 5857 5857 5855 5854 5853 5852 5851 5850 5849 5848 5847 5845 5844 5843 5842 5841 5841 5839 5838 5837 5836 5835 5835 5833 5832 5831 5830 5829 5828 5827 5827 5826 5825 5824 5823 5822 5821 5820 5819 5818 5817 5817
5853 5852 5851 5850 5849 5848 5847 5846 5845 5844 5842 5841 5840 5839 5837 5836 5835 5834 5833 5832 5831 5829 5828 5827 5826 5825 5824 5823 5822 5821 5821 5820 5819 5818 5817 5816 5815 5815 5813 5812 5811 5810 5809
5847 5847 5846 5845 5844 5843 5842 5840 5839 5838 5837 5835 5834 5833 5831 5830 5829 5827 5826 5825 5823 5822 5821 5820 5819 5818 5817 5816 5815 5814 5813 5813 5812 5811 5810 5809 5808 5807 5806 5805 5804 5803 5802
5842 5841 5840 5839 5838 5837 5835 5834 5833 5832 5830 5829 5827 5826 5825 5823 5822 5820 5819 5817 5816 5815 5813 5812 5811 5810 5809 5808 5807 5806 5806 5805 5804 5803 5802 5801 5800 5799 5799 5798 5797 5796 5795
5836 5834 5833 5832 5831 5830 5828 5827 5826 5825 5823 5822 5820 5819 5817 5816 5814 5813 5811 5810 5809 5807 5805 5804 5803 5802 5801 5800 5799 5798 5797 5797 5796 5795 5794 5793 5792 5791 5791 5790 5789 5788 5787
5829 5828 5826 5825 5824 5822 5821 5820 5819 5817 5816 5814 5812 5811 5809 5808 5806 5805 5803 5802 5800 5799 5798 5796 5795 5794 5793 5792 5791 5789 5788 5788 5787 5786 5785 5785 5784 5783 5782 5781 5781 5780 5779
5821 5820 5818 5817 5816 5815 5814 5812 5811 5809 5808 5806 5805 5803 5801 5800 5798 5796 5795 5793 5792 5791 5789 5788 5787 5785 5784 5782 5782 5781 5779 5779 5778 5777 5776 5776 5775 5774 5774 5773 5772 5771 5770
5813 5812 5810 5809 5808 5807 5806 5804 5803 5801 5800 5798 5797 5795 5793 5792 5790 5788 5787 5785 5783 5782 5780 5779 5777 5776 5774 5773 5772 5771 5770 5769 5769 5768 5767 5766 5766 5765 5764 5763 5762 5762 5761
5805 5803 5802 5801 5800 5799 5797 5796 5794 5793 5791 5790 5788 5787 5785 5783 5781 5779 5778 5776 5775 5773 5771 5770 5768 5766 5765 5763 5762 5761 5760 5759 5758 5758 5757 5757 5756 5755 5755 5754 5753 5753 5752